TimeEST,TemperatureF,Dew PointF,Humidity,Sea Level PressureIn,VisibilityMPH,Wind Direction,Wind SpeedMPH,Gust SpeedMPH,PrecipitationIn,Events,Conditions,WindDirDegrees,DateUTC
12:15 AM,42.8,28.4,57,30.22,10.0,West,21.9,33.4,N/A,,Clear,260,2012-11-30 05:15:00
12:35 AM,42.8,28.4,57,30.22,10.0,WSW,25.3,29.9,N/A,,Mostly Cloudy,250,2012-11-30 05:35:00
1:15 AM,42.8,28.4,57,30.23,10.0,West,23.0,29.9,N/A,,Overcast,260,2012-11-30 06:15:00
1:35 AM,42.8,28.4,57,30.24,10.0,West,20.7,28.8,N/A,,Overcast,260,2012-11-30 06:35:00
1:55 AM,42.8,28.4,57,30.25,10.0,West,23.0,28.8,N/A,,Overcast,270,2012-11-30 06:55:00
2:15 AM,42.8,28.4,57,30.26,10.0,West,19.6,28.8,N/A,,Overcast,270,2012-11-30 07:15:00
2:35 AM,42.8,26.6,53,30.26,10.0,West,18.4,26.5,N/A,,Overcast,270,2012-11-30 07:35:00
2:55 AM,42.8,28.4,57,30.27,10.0,West,18.4,23.0,N/A,,Overcast,280,2012-11-30 07:55:00
3:15 AM,41.0,26.6,57,30.28,10.0,WNW,23.0,27.6,N/A,,Scattered Clouds,300,2012-11-30 08:15:00
3:35 AM,39.2,26.6,61,30.29,10.0,NW,15.0,25.3,N/A,,Clear,310,2012-11-30 08:35:00
4:15 AM,39.2,30.2,70,30.31,10.0,North,13.8,-,N/A,,Partly Cloudy,350,2012-11-30 09:15:00
4:16 AM,39.2,30.2,70,30.31,10.0,North,13.8,-,N/A,,Partly Cloudy,350,2012-11-30 09:16:00
4:35 AM,39.2,30.2,70,30.32,10.0,NNW,13.8,18.4,N/A,,Partly Cloudy,340,2012-11-30 09:35:00
4:55 AM,39.2,30.2,70,30.33,10.0,NNW,13.8,19.6,N/A,,Mostly Cloudy,340,2012-11-30 09:55:00
5:15 AM,39.2,30.2,70,30.34,10.0,North,13.8,20.7,N/A,,Mostly Cloudy,350,2012-11-30 10:15:00
5:35 AM,37.4,28.4,70,30.34,10.0,North,12.7,16.1,N/A,,Mostly Cloudy,360,2012-11-30 10:35:00
5:56 AM,37.4,28.4,70,30.36,10.0,North,16.1,21.9,N/A,,Overcast,360,2012-11-30 10:56:00
6:15 AM,37.4,28.4,70,30.37,10.0,North,13.8,21.9,N/A,,Overcast,360,2012-11-30 11:15:00
6:35 AM,37.4,28.4,70,30.38,10.0,North,16.1,24.2,N/A,,Mostly Cloudy,360,2012-11-30 11:35:00
6:55 AM,37.4,24.8,60,30.39,10.0,North,16.1,26.5,N/A,,Clear,350,2012-11-30 11:55:00
7:15 AM,37.4,24.8,60,30.40,10.0,North,17.3,24.2,N/A,,Clear,360,2012-11-30 12:15:00
7:35 AM,37.4,21.2,52,30.40,10.0,North,18.4,25.3,N/A,,Clear,350,2012-11-30 12:35:00
7:55 AM,37.4,21.2,52,30.42,10.0,North,18.4,25.3,N/A,,Scattered Clouds,360,2012-11-30 12:55:00
8:15 AM,37.4,24.8,60,30.42,10.0,North,15.0,23.0,N/A,,Mostly Cloudy,10,2012-11-30 13:15:00
8:35 AM,37.4,26.6,65,30.43,10.0,NNE,13.8,18.4,N/A,,Mostly Cloudy,20,2012-11-30 13:35:00
9:15 AM,37.4,26.6,65,30.45,10.0,NNE,15.0,23.0,N/A,,Overcast,20,2012-11-30 14:15:00
9:55 AM,35.6,24.8,65,30.47,10.0,NNE,16.1,21.9,N/A,,Overcast,30,2012-11-30 14:55:00
10:15 AM,35.6,24.8,65,30.47,10.0,NNE,12.7,20.7,N/A,,Overcast,30,2012-11-30 15:15:00
10:35 AM,35.6,24.8,65,30.47,10.0,NNE,16.1,20.7,N/A,,Overcast,30,2012-11-30 15:35:00